Weather History for KCOQ - December, 2011

Change the Weather History Date:

Sunday, December 25, 2011

  Actual Average Record
Temperature  
Mean Temperature 30 °F -  
Max Temperature 35 °F 18 °F 46 °F (1999)
Min Temperature 26 °F 5 °F -20 °F (1996)
Degree Days  
Heating Degree Days 34    
Moisture  
Dew Point 23 °F    
Average Humidity 66    
Maximum Humidity 81    
Minimum Humidity 56    
Precipitation  
Precipitation 0.00 in - - ()
Sea Level Pressure  
Sea Level Pressure 30.03 in    
Wind  
Wind Speed 13 mph (WNW)    
Max Wind Speed 22 mph    
Max Gust Speed 28 mph    
Visibility 10 miles    
Events Snow    
Averages and records for this station are not official NWS values.
T = Trace of Precipitation, MM = Missing Value Source: NWS Daily Summary

Daily Weather History Graph

Daily Weather History Graph

Search for Another Location

Airport or City:

Trip Planner

Search our weather history database for the weather conditions in past years. The results will help you decide how hot, cold, wet, or windy it might be!

Date:

Astronomy

Dec. 25, 2011 Rise Set
Actual Time 7:53 AM CST 4:26 PM CST
Civil Twilight 7:18 AM CST 5:02 PM CST
Nautical Twilight 6:39 AM CST 5:40 PM CST
Astronomical Twilight 6:02 AM CST 6:17 PM CST
Moon 8:29 AM CST (12/25) 5:51 PM CST (12/25)
Length of Visible Light 9h 43m
Length of Day
8h 33m
New Moon, 1% of the Moon is Illuminated
Dec 25
New Moon
Jan 1
First Quarter
Jan 9
Full
Jan 16
Last Quarter
Jan 23
New

Hourly Weather History & Observations

Time (CST) Temp. Windchill Dew Point Humidity Pressure Visibility Wind Dir Wind Speed Gust Speed Precip Events Conditions
12:16 AM 32.0 °F 23.6 °F 19.4 °F 60% 29.81 in 10.0 mi West 10.4 mph - N/A   Scattered Clouds
12:36 AM 32.0 °F 22.5 °F 19.4 °F 60% 29.81 in 10.0 mi West 12.7 mph 18.4 mph N/A   Mostly Cloudy
12:56 AM 30.2 °F 21.3 °F 19.4 °F 64% 29.82 in 10.0 mi West 10.4 mph 16.1 mph N/A   Overcast
1:16 AM 32.0 °F 21.6 °F 21.2 °F 64% 29.83 in 10.0 mi West 15.0 mph 18.4 mph N/A   Overcast
1:35 AM 30.2 °F 20.2 °F 21.2 °F 69% 29.83 in 10.0 mi West 12.7 mph - N/A   Overcast
1:56 AM 30.2 °F 20.8 °F 21.2 °F 69% 29.83 in 10.0 mi West 11.5 mph 18.4 mph N/A   Overcast
2:16 AM 32.0 °F 21.2 °F 21.2 °F 64% 29.84 in 10.0 mi West 16.1 mph 20.7 mph N/A   Overcast
2:35 AM 33.8 °F 23.9 °F 24.8 °F 70% 29.86 in 10.0 mi WNW 15.0 mph 20.7 mph N/A   Overcast
2:56 AM 33.8 °F 22.8 °F 26.6 °F 75% 29.87 in 10.0 mi WNW 18.4 mph 21.9 mph N/A   Overcast
3:15 AM 33.8 °F 23.5 °F 26.6 °F 75% 29.88 in 5.0 mi WNW 16.1 mph 24.2 mph N/A Snow Light Snow
3:36 AM 33.8 °F 23.2 °F 26.6 °F 75% 29.89 in 10.0 mi WNW 17.3 mph 21.9 mph N/A   Overcast
3:56 AM 33.8 °F 24.3 °F 26.6 °F 75% 29.90 in 10.0 mi WNW 13.8 mph 21.9 mph N/A   Overcast
4:16 AM 33.8 °F 24.3 °F 26.6 °F 75% 29.91 in 10.0 mi WNW 13.8 mph 21.9 mph N/A   Overcast
4:36 AM 33.8 °F 23.5 °F 26.6 °F 75% 29.92 in 10.0 mi WNW 16.1 mph 21.9 mph N/A   Overcast
4:55 AM 33.8 °F 23.5 °F 26.6 °F 75% 29.92 in 10.0 mi WNW 16.1 mph 21.9 mph N/A   Overcast
5:16 AM 33.8 °F 23.9 °F 26.6 °F 75% 29.93 in 10.0 mi WNW 15.0 mph 19.6 mph N/A Snow Light Snow
5:36 AM 33.8 °F 24.3 °F 28.4 °F 81% 29.94 in 5.0 mi WNW 13.8 mph 23.0 mph N/A Snow Light Snow
5:55 AM 33.8 °F 24.3 °F 26.6 °F 75% 29.94 in 10.0 mi West 13.8 mph 20.7 mph N/A   Overcast
6:15 AM 33.8 °F 24.3 °F 26.6 °F 75% 29.95 in 10.0 mi West 13.8 mph 21.9 mph N/A   Overcast
6:36 AM 33.8 °F 23.9 °F 26.6 °F 75% 29.97 in 10.0 mi WNW 15.0 mph 20.7 mph N/A   Overcast
6:56 AM 33.8 °F 24.8 °F 26.6 °F 75% 29.98 in 10.0 mi WNW 12.7 mph 16.1 mph N/A   Overcast
7:15 AM 33.8 °F 24.3 °F 26.6 °F 75% 29.99 in 10.0 mi WNW 13.8 mph 18.4 mph N/A   Overcast
7:36 AM 33.8 °F 21.9 °F 26.6 °F 75% 30.00 in 10.0 mi WNW 21.9 mph 27.6 mph N/A   Overcast
7:56 AM 33.8 °F 23.9 °F 24.8 °F 70% 30.01 in 10.0 mi NW 15.0 mph 24.2 mph N/A   Overcast
8:15 AM 33.8 °F 23.9 °F 24.8 °F 70% 30.02 in 10.0 mi WNW 15.0 mph 18.4 mph N/A   Overcast
8:36 AM 33.8 °F 24.3 °F 24.8 °F 70% 30.03 in 10.0 mi NW 13.8 mph 20.7 mph N/A   Overcast
8:56 AM 33.8 °F 24.3 °F 24.8 °F 70% 30.05 in 10.0 mi NW 13.8 mph 18.4 mph N/A   Overcast
9:15 AM 33.8 °F 24.3 °F 23.0 °F 65% 30.06 in 10.0 mi NW 13.8 mph 23.0 mph N/A   Overcast
9:36 AM 33.8 °F 23.9 °F 23.0 °F 65% 30.08 in 10.0 mi NW 15.0 mph 23.0 mph N/A   Overcast
9:55 AM 33.8 °F 22.8 °F 23.0 °F 65% 30.09 in 10.0 mi WNW 18.4 mph 25.3 mph N/A   Overcast
10:16 AM 33.8 °F 25.3 °F 23.0 °F 65% 30.10 in 10.0 mi NW 11.5 mph 18.4 mph N/A   Overcast
10:36 AM 33.8 °F 23.9 °F 23.0 °F 65% 30.11 in 10.0 mi WNW 15.0 mph 24.2 mph N/A   Overcast
10:55 AM 33.8 °F 24.8 °F 23.0 °F 65% 30.12 in 10.0 mi NW 12.7 mph 16.1 mph N/A   Overcast
11:16 AM 33.8 °F 25.3 °F 23.0 °F 65% 30.11 in 10.0 mi WNW 11.5 mph - N/A   Overcast
11:36 AM 35.6 °F 26.2 °F 21.2 °F 56% 30.12 in 10.0 mi WNW 15.0 mph 19.6 mph N/A   Overcast
11:55 AM 35.6 °F 28.0 °F 23.0 °F 60% 30.12 in 10.0 mi WNW 10.4 mph - N/A   Overcast
12:16 PM 35.6 °F 25.2 °F 21.2 °F 56% 30.12 in 10.0 mi WNW 18.4 mph 23.0 mph N/A   Overcast
12:36 PM 35.6 °F 27.5 °F 21.2 °F 56% 30.13 in 10.0 mi WNW 11.5 mph 23.0 mph N/A   Overcast
12:56 PM 35.6 °F 25.9 °F 21.2 °F 56% 30.13 in 10.0 mi WNW 16.1 mph 19.6 mph N/A   Overcast
1:16 PM 35.6 °F 27.5 °F 21.2 °F 56% 30.13 in 10.0 mi WNW 11.5 mph 18.4 mph N/A   Overcast
1:35 PM 35.6 °F 27.1 °F 21.2 °F 56% 30.14 in 10.0 mi NW 12.7 mph 25.3 mph N/A   Overcast
1:56 PM 35.6 °F 26.2 °F 21.2 °F 56% 30.14 in 10.0 mi West 15.0 mph 23.0 mph N/A   Overcast
2:16 PM 35.6 °F 28.6 °F 21.2 °F 56% 30.14 in 10.0 mi WNW 9.2 mph - N/A   Overcast
2:36 PM 35.6 °F 28.0 °F 21.2 °F 56% 30.15 in 10.0 mi West 10.4 mph 17.3 mph N/A   Overcast
2:56 PM 33.8 °F 26.4 °F 21.2 °F 60% 30.16 in 10.0 mi West 9.2 mph 18.4 mph N/A   Overcast
3:16 PM 33.8 °F 26.4 °F 19.4 °F 56% 30.16 in 10.0 mi WNW 9.2 mph - N/A   Overcast
3:35 PM 33.8 °F 26.4 °F 21.2 °F 60% 30.16 in 10.0 mi WNW 9.2 mph - N/A   Mostly Cloudy
3:56 PM 33.8 °F 28.6 °F 19.4 °F 56% 30.17 in 10.0 mi WNW 5.8 mph - N/A   Scattered Clouds
4:15 PM 33.8 °F 29.6 °F 19.4 °F 56% 30.17 in 10.0 mi WNW 4.6 mph - N/A   Clear
4:36 PM 30.2 °F - 19.4 °F 64% 30.18 in 10.0 mi Calm Calm - N/A   Clear
4:56 PM 30.2 °F - 19.4 °F 64% 30.17 in 10.0 mi Calm Calm - N/A   Clear
5:15 PM 28.4 °F - 19.4 °F 69% 30.18 in 10.0 mi Calm Calm - N/A   Clear
5:36 PM 26.6 °F - 19.4 °F 74% 30.18 in 10.0 mi Calm Calm - N/A   Clear
5:56 PM 28.4 °F - 19.4 °F 69% 30.17 in 10.0 mi Calm Calm - N/A   Clear
6:15 PM 26.6 °F 22.6 °F 19.4 °F 74% 30.17 in 10.0 mi SSW 3.5 mph - N/A   Clear
6:36 PM 28.4 °F 24.6 °F 19.4 °F 69% 30.16 in 10.0 mi SSW 3.5 mph - N/A   Clear
6:56 PM 28.4 °F 24.6 °F 19.4 °F 69% 30.16 in 10.0 mi SSW 3.5 mph - N/A   Clear
7:16 PM 28.4 °F 23.3 °F 19.4 °F 69% 30.15 in 10.0 mi SW 4.6 mph - N/A   Clear
7:36 PM 28.4 °F 23.3 °F 19.4 °F 69% 30.14 in 10.0 mi SSW 4.6 mph - N/A   Clear
7:55 PM 28.4 °F 23.3 °F 19.4 °F 69% 30.13 in 10.0 mi SSW 4.6 mph - N/A   Clear
8:16 PM 28.4 °F 22.2 °F 19.4 °F 69% 30.12 in 10.0 mi SSW 5.8 mph - N/A   Clear
8:35 PM 28.4 °F 22.2 °F 19.4 °F 69% 30.11 in 10.0 mi SSW 5.8 mph - N/A   Clear
8:56 PM 28.4 °F 23.3 °F 19.4 °F 69% 30.11 in 10.0 mi SW 4.6 mph - N/A   Clear
9:16 PM 28.4 °F 21.2 °F 19.4 °F 69% 30.10 in 10.0 mi SW 6.9 mph - N/A   Clear
9:36 PM 28.4 °F 21.2 °F 19.4 °F 69% 30.09 in 10.0 mi SW 6.9 mph - N/A   Clear
9:56 PM 28.4 °F 21.2 °F 19.4 °F 69% 30.08 in 10.0 mi SW 6.9 mph - N/A   Clear
10:16 PM 28.4 °F 21.2 °F 19.4 °F 69% 30.08 in 10.0 mi SW 6.9 mph - N/A   Clear
10:36 PM 28.4 °F 21.2 °F 19.4 °F 69% 30.07 in 10.0 mi SW 6.9 mph - N/A   Clear
10:56 PM 28.4 °F 21.2 °F 19.4 °F 69% 30.07 in 10.0 mi SW 6.9 mph - N/A   Clear
11:15 PM 28.4 °F 22.2 °F 19.4 °F 69% 30.05 in 10.0 mi SSW 5.8 mph - N/A   Clear
11:36 PM 26.6 °F 20.0 °F 19.4 °F 74% 30.05 in 10.0 mi SSW 5.8 mph - N/A   Clear
11:56 PM 26.6 °F 19.1 °F 19.4 °F 74% 30.03 in 10.0 mi SW 6.9 mph - N/A   Clear